Regional Weather Roundup
Issued by NWS Boston, MA

Current Version | Previous Version | Text Only | Print | Product List | Glossary Off
Versions: 1 2 3 4 5 6 7 8 9 10 11 12 13 14 15 16 17 18 19 20 21 22 23 24 25 26 27 28 29 30 31 32 33 34 35 36 37 38 39 40 41 42 43 44 45 46 47 48 49 50
000 ASUS41 KBOX 281810 RWRBOX REGIONAL WEATHER ROUNDUP NATIONAL WEATHER SERVICE TAUNTON MA 200 PM EDT TUE MAR 28 2017 NOTE: "FAIR" INDICATES FEW OR NO CLOUDS BELOW 12,000 FEET WITH NO SIGNIFICANT WEATHER AND/OR OBSTRUCTIONS TO VISIBILITY. MAZALL-281900- EASTERN MASSACHUSETTS CITY SKY/WX TMP DP RH WIND PRES REMARKS BOSTON CLOUDY 40 38 93 E9 30.01S 6HR MIN TEMP: 36; 6HR MAX TEMP: 40; BEVERLY CLOUDY 40 37 89 NE7 30.00F LAWRENCE CLOUDY 37 36 96 NE8 30.01F WCI 31 BEDFORD CLOUDY 43 35 73 NE3 29.99S BLUE HILL N/A 38 36 92 NE7 29.97R NORWOOD CLOUDY 43 38 82 NE7 30.00R MARSHFIELD CLOUDY 41 37 87 E8 30.00S PLYMOUTH CLOUDY 41 37 86 NE8 30.00R TAUNTON CLOUDY 46 39 76 CALM 29.98S NEW BEDFORD CLOUDY 46 40 79 NE6 29.97F $$ MAZALL-281900- CAPE COD AND THE ISLANDS CITY SKY/WX TMP DP RH WIND PRES REMARKS FALMOUTH PTSUNNY 45 39 81 MISG 29.99S HYANNIS CLOUDY 45 40 82 N7 29.97S CHATHAM CLOUDY 44 39 82 NE12 29.99F PROVINCETOWN CLOUDY 43 39 86 E10 30.00S NANTUCKET PTSUNNY 45 38 76 NE13 29.98S MARTHAS VNYRD CLOUDY 43 38 82 E9 29.98S $$ MAZALL-281900- CENTRAL AND WESTERN MASSACHUSETTS CITY SKY/WX TMP DP RH WIND PRES REMARKS WORCESTER FOG 37 36 96 NE3 29.96S VSB 1/4 6HR MIN TEMP: 34; 6HR MAX TEMP: 37; FITCHBURG CLOUDY 40 37 89 NE5 29.99S ORANGE CLOUDY 44 39 82 CALM 29.96S SPRINGFIELD DRIZZLE 45 39 80 S3 29.97R WESTFIELD LGT RAIN 42 41 96 SW3 29.98R FOG NORTH ADAMS RAIN 46 44 93 CALM 29.91R FOG PITTSFIELD CLOUDY 48 43 82 CALM 29.90S $$ RIZALL-281900- RHODE ISLAND CITY SKY/WX TMP DP RH WIND PRES REMARKS PROVIDENCE LGT RAIN 43 39 86 CALM 30.00S 6HR MIN TEMP: 39; 6HR MAX TEMP: 43; 6HR PCP: TRACE; NEWPORT CLOUDY 44 41 89 E5 29.98R BLOCK ISLAND LGT RAIN 39 38 96 CALM 30.03R SMITHFIELD CLOUDY 41 39 93 E3 29.99R WESTERLY LGT RAIN 43 40 89 S9 30.03R FOG $$ CTZALL-281900- CONNECTICUT CITY SKY/WX TMP DP RH WIND PRES REMARKS BRADLEY INTL LGT RAIN 43 41 93 SW5 29.99R FOG 6HR MIN TEMP: 39; 6HR MAX TEMP: 44; 6HR PCP: 0.02; HARTFORD CLOUDY 44 42 93 CALM 29.99S FOG BRIDGEPORT LGT RAIN 41 38 89 E16 29.95F FOG DANBURY LGT RAIN 43 42 97 E5 29.94S GROTON RAIN 41 38 89 SE13 30.00R FOG NEW HAVEN RAIN 41 39 93 NE10 29.95F FOG CHESTER NOT AVBL MERIDEN LGT RAIN 44 42 93 NE3 29.96F FOG WILLIMANTIC CLOUDY 46 42 86 S3 30.00R OXFORD LGT RAIN 41 37 87 E5 29.94F VSB 3/4 $$ MEZ002-015-021-024-NHZ003-005-008-011-012-014-VTZ005-008-281900- NORTHERN NEW ENGLAND CITY SKY/WX TMP DP RH WIND PRES REMARKS PORTLAND ME CLOUDY 35 33 92 E5 30.03F WCI 31 6HR MIN TEMP: 33; 6HR MAX TEMP: 36; 6HR PCP: TRACE; BANGOR ME CLOUDY 33 32 96 S6 30.03F WCI 28 CONCORD NH CLOUDY 40 35 83 CALM 29.99F MANCHESTER NH CLOUDY 40 33 76 NE5 29.98F NASHUA NH CLOUDY 40 36 86 CALM 30.00F PORTSMOUTH NH CLOUDY 38 34 85 E3 30.00F JAFFREY NH CLOUDY 39 37 92 CALM 29.96F KEENE NH CLOUDY 43 37 81 N3 29.97S BURLINGTON VT LGT RAIN 46 43 89 NW7 29.88S MT. WASHINGTON FOG 36 36 100 W36 N/A VSB 0 WCI 21 $$ NYZ052-076-281900- EASTERN NEW YORK CITY SKY/WX TMP DP RH WIND PRES REMARKS ALBANY LGT RAIN 48 43 82 S7 29.92F 6HR MIN TEMP: 41; 6HR MAX TEMP: 51; 6HR PCP: 0.01; NEW YORK CITY LGT RAIN 43 40 89 NE10 29.94R FOG 6HR MIN TEMP: 42; 6HR MAX TEMP: 44; 6HR PCP: 0.12; $$ ANZALL-281900- MARINE OBSERVATIONS STATION/POSITION TIME TEMP WIND PRES VSBY WAVE AIR SEA DIR/SP/G HT/PER (UTC) (F) (DEG/KT/KT) (MB) (MI) (FT/S) BOSTON BUOY NOT AVBL BUZZARDS BAY 1700 38 40/ 14/ 15 1015.4F NANTUCKET SOUND NOT AVBL MASS BAY-STELLWA NOT AVBL ISLE OF SHOALS 1700 36 30/ 9/ 10 1016.5F S OF BLOCK IS NOT AVBL $$ ......................KEY......................... SKY/WX - SKY CONDITION/PRESENT WEATHER TMP - TEMPERATURE IN FAHRENHEIT DWPT - DEWPOINT IN FAHRENHEIT RH - RELATIVE HUMIDITY IN PERCENT WIND - DIRECTION AND SPEED IN MPH PRES - MEAN SEA LEVEL PRESSURE IN INCHES OF HG WCI - WIND CHILL INDEX VSB - VISIBILITY IN MILES HX - HEAT INDEX TC - TEMPERATURE IN CELSIUS VRB - VARIABLE WIND DIRECTION N/A - NOT AVAILABLE

USA.gov is the U.S. government's official web portal to all federal, state and local government web resources and services.